Regional Weather Roundup
Issued by NWS Goodland, KS

Home | Current Version | Previous Version | Text Only | Print | Product List | Glossary Off
Versions: 1 2 3 4 5 6 7 8 9 10 11 12 13 14 15 16 17 18 19 20 21 22 23 24 25 26 27 28 29 30 31 32 33 34 35 36 37 38 39 40 41 42 43 44 45 46 47 48 49 50

000
ASUS43 KGLD 271408
RWRGLD

GOODLAND FORECAST AREA HOURLY WEATHER ROUNDUP
NATIONAL WEATHER SERVICE GOODLAND KS
800 AM MDT MON MAR 27 2017

...OFFICIAL OBSERVATIONS...

CITY           SKY/WX    TMP DP  RH WIND       PRES   REMARKS
GOODLAND KS    SUNNY     38  36  92 W7        29.95R
HILL CITY KS   SUNNY     37  36  96 W6        29.98R
IMPERIAL NEB   SUNNY     38  34  85 NW5       29.94S
MCCOOK NEB     SUNNY     36  36 100 SW3       29.96R
AKRON CO       SUNNY     41  36  82 SW6       29.94R
BURLINGTON CO  SUNNY     37  35  92 W8        29.96R
LIMON CO       SUNNY     32  31  96 N5        29.97R
$$

...UNOFFICIAL OBSERVATIONS...

CITY           SKY/WX    TMP DP  RH WIND       PRES   REMARKS
LENORA KS        N/A     41  32  70 CALM        N/A
NORTON KS      FOG       36  34  93 CALM      29.96S VSB 0
SHARON SPRINGS   N/A     38  37  97 CALM        N/A
TRENTON NEB      N/A     38  32  79 CALM        N/A
YUMA CO        FAIR      34  32  93 CALM      29.95R
$$




USA.gov is the U.S. government's official web portal to all federal, state and local government web resources and services.